Location: Key Biscayne
(25.6930°N, 80.1630°W)
Time: 01:27:59
(UTC-05:00)

Vanguard 1 Rocket - All Passes

Search period start: 18 November 2017 00:00
Search period end: 28 November 2017 00:00
Orbit: 655 x 4222 km, 34.3° (Epoch: 17 November)

Date Brightness Start Highest point End Pass type
(mag) Time Alt. Az. Time Alt. Az. Time Alt. Az.
18 Nov - 00:05:01 10° WSW 00:31:34 75° NNW 00:52:03 10° ENE visible
18 Nov - 02:41:33 10° WNW 03:06:21 67° N 03:20:10 10° E visible
18 Nov - 05:18:11 10° WNW 05:36:46 80° SSW 05:45:49 10° SE visible
18 Nov - 07:54:20 10° W 08:01:33 19° SW 08:06:34 10° S daylight
18 Nov - 18:05:14 10° SSE 18:13:42 14° SE 18:23:50 10° E visible
18 Nov - 20:22:55 10° SSW 20:42:17 53° SE 21:06:58 10° ENE visible
18 Nov - 22:50:21 10° WSW 23:15:22 86° NNW 23:38:57 10° ENE visible
19 Nov - 01:24:35 10° W 01:51:03 67° N 02:08:08 10° E visible
19 Nov - 04:01:42 10° WNW 04:23:57 81° NNE 04:35:10 10° ESE visible
19 Nov - 06:37:29 10° WNW 06:51:04 40° SW 06:58:31 10° SSE daylight
19 Nov - 19:12:50 10° SSW 19:28:41 36° SE 19:50:19 10° ENE visible
19 Nov - 21:37:09 10° SW 21:59:32 80° SSE 22:25:05 10° ENE visible
20 Nov - 00:08:26 10° W 00:34:54 71° NNW 00:55:30 10° ENE visible
20 Nov - 02:44:51 10° WNW 03:09:53 71° NNE 03:23:49 10° E visible
20 Nov - 05:21:10 10° WNW 05:39:44 66° SW 05:49:00 10° SE visible
20 Nov - 07:59:52 10° W 08:04:02 13° WSW 08:07:27 10° SSW daylight
20 Nov - 18:04:52 10° SSE 18:16:01 20° SE 18:30:42 10° E visible
20 Nov - 20:25:20 10° SW 20:44:36 62° SE 21:10:14 10° ENE visible
20 Nov - 22:53:35 10° WSW 23:18:25 79° NNW 23:42:13 10° ENE visible
21 Nov - 01:28:04 10° W 01:54:36 68° N 02:11:46 10° E visible
21 Nov - 04:04:42 10° WNW 04:27:12 89° SSW 04:38:36 10° ESE visible
21 Nov - 06:41:06 10° WNW 06:53:37 31° SW 07:01:01 10° S daylight
21 Nov - 19:14:49 10° SSW 19:30:51 44° SE 19:54:04 10° ENE visible
21 Nov - 21:40:08 10° WSW 22:02:17 88° SSE 22:28:13 10° ENE visible
22 Nov - 00:11:57 10° W 00:38:20 69° N 00:59:01 10° ENE visible
22 Nov - 02:48:02 10° WNW 03:13:19 77° NNE 03:27:25 10° ESE visible
22 Nov - 05:24:15 10° WNW 05:42:31 54° SW 05:52:00 10° SE visible
22 Nov - 18:05:53 10° S 18:18:12 27° SE 18:35:50 10° E visible
22 Nov - 20:28:01 10° SW 20:47:03 72° SE 21:13:22 10° ENE visible
22 Nov - 22:56:58 10° W 23:21:39 74° NNW 23:45:34 10° ENE visible
23 Nov - 01:31:28 10° WNW 01:58:08 70° N 02:15:25 10° E visible
23 Nov - 04:07:38 10° WNW 04:30:15 78° SSW 04:41:52 10° SE visible
23 Nov - 06:45:12 10° W 06:56:02 23° SW 07:03:04 10° S daylight
23 Nov - 17:01:04 10° SE 17:06:20 12° ESE 17:12:30 10° ESE daylight
23 Nov - 19:17:09 10° SSW 19:33:05 53° SE 19:57:27 10° ENE visible
23 Nov - 21:43:18 10° WSW 22:05:13 84° NNW 22:31:22 10° ENE visible
24 Nov - 00:15:29 10° W 00:41:51 68° N 01:02:36 10° E visible
24 Nov - 02:51:06 10° WNW 03:16:36 84° NNE 03:30:53 10° ESE visible
24 Nov - 05:27:29 10° WNW 05:45:04 43° SW 05:54:43 10° SSE visible
24 Nov - 18:07:35 10° S 18:20:22 34° SE 18:40:03 10° ENE visible
24 Nov - 20:30:56 10° SW 20:49:41 81° SSE 21:16:25 10° ENE visible
24 Nov - 23:00:28 10° W 23:25:01 71° N 23:48:59 10° ENE visible
25 Nov - 01:34:47 10° WNW 02:01:35 74° NNE 02:19:00 10° E visible
25 Nov - 04:10:36 10° WNW 04:33:03 66° SW 04:44:58 10° SE visible
25 Nov - 06:50:12 10° W 06:58:22 16° WSW 07:04:22 10° SSW daylight
25 Nov - 17:00:14 10° SSE 17:08:36 18° SE 17:19:57 10° E daylight
25 Nov - 19:19:45 10° SW 19:35:27 63° SE 20:00:37 10° ENE visible
25 Nov - 21:46:40 10° WSW 22:08:20 78° NNW 22:34:36 10° ENE visible
26 Nov - 00:18:59 10° W 00:45:23 69° N 01:06:13 10° E visible
26 Nov - 02:54:07 10° WNW 03:19:42 87° SSW 03:34:13 10° ESE visible
26 Nov - 05:31:01 10° WNW 05:47:28 34° SW 05:57:09 10° SSE visible
26 Nov - 18:09:44 10° SSW 18:22:34 43° SE 18:43:44 10° ENE visible
26 Nov - 20:34:04 10° WSW 20:52:32 90° SE 21:19:28 10° ENE visible
26 Nov - 23:04:02 10° W 23:28:29 69° N 23:52:30 10° E visible
27 Nov - 01:37:59 10° WNW 02:04:54 80° NNE 02:22:31 10° ESE visible
27 Nov - 04:13:39 10° WNW 04:35:40 56° SW 04:47:50 10° SSE visible
27 Nov - 06:57:50 10° WSW 07:00:43 11° WSW 07:03:18 10° SW daylight
27 Nov - 17:01:16 10° S 17:10:49 24° SE 17:25:11 10° E daylight
27 Nov - 19:22:36 10° SW 19:38:01 73° SE 20:03:39 10° ENE visible
27 Nov - 21:50:09 10° W 22:11:38 73° NNW 22:37:54 10° ENE visible
